Weather History for Mobile Downtown, AL

Change the Weather History Date:

Friday, February 22, 2013

  Actual Average Record
Temperature  
Mean Temperature 64 °F -  
Max Temperature 66 °F 62 °F 78 °F (2006)
Min Temperature 61 °F 45 °F 30 °F (1999)
Degree Days  
Heating Degree Days 1    
Growing Degree Days 14 (Base 50)    
Moisture  
Dew Point 63 °F    
Average Humidity 95    
Maximum Humidity 100    
Minimum Humidity 70    
Precipitation  
Precipitation 0.53 in - - ()
Sea Level Pressure  
Sea Level Pressure 29.93 in    
Wind  
Wind Speed 6 mph (North)    
Max Wind Speed 10 mph    
Max Gust Speed 22 mph    
Visibility 6 miles    
Events Fog , Rain , Thunderstorm    
Averages and records for this station are not official NWS values.
T = Trace of Precipitation, MM = Missing Value Source: NWS Daily Summary

Daily Weather History Graph

Daily Weather History Graph

Search for Another Location

Airport:

Trip Planner

Search our weather history database for the weather conditions in past years. The results will help you decide how hot, cold, wet, or windy it might be!

Date:

Astronomy

Feb. 22, 2013 Rise Set
Actual Time 6:25 AM CST 5:46 PM CST
Civil Twilight 6:01 AM CST 6:10 PM CST
Nautical Twilight 5:33 AM CST 6:38 PM CST
Astronomical Twilight 5:05 AM CST 7:06 PM CST
Moon 3:04 PM CST (2/22) 4:02 AM CST (2/22)
Length of Visible Light 12h 08m
Length of Day
11h 20m
Waxing Gibbous, 90% of the Moon is Illuminated
Feb 22
Waxing Gibbous
Feb 25
Full
Mar 4
Last Quarter
Mar 11
New
Mar 19
First Quarter

Hourly Weather History & Observations

Time (CST) Temp. Dew Point Humidity Pressure Visibility Wind Dir Wind Speed Gust Speed Precip Events Conditions
12:53 AM 63.0 °F 62.1 °F 97% 29.90 in 4.0 mi SSE 10.4 mph - N/A   Overcast
2:22 AM 62.6 °F 62.6 °F 100% 29.90 in 2.5 mi SSE 5.8 mph - N/A   Overcast
2:34 AM 62.6 °F 62.6 °F 100% 29.88 in 2.0 mi South 6.9 mph - N/A Thunderstorm Overcast
2:43 AM 62.6 °F 62.6 °F 100% 29.88 in 1.5 mi SSE 8.1 mph - N/A Thunderstorm Overcast
2:53 AM 62.1 °F 62.1 °F 100% 29.91 in 1.2 mi SW 10.4 mph 18.4 mph 0.00 in Rain , Thunderstorm Light Thunderstorms and Rain
3:02 AM 64.4 °F 64.4 °F 100% 29.89 in 3.0 mi West 4.6 mph 21.9 mph 0.02 in Rain , Thunderstorm Light Thunderstorms and Rain
3:14 AM 66.2 °F 66.2 °F 100% 29.89 in 9.0 mi SSW 5.8 mph - 0.02 in Rain , Thunderstorm Light Thunderstorms and Rain
3:25 AM 66.2 °F 66.2 °F 100% 29.88 in 9.0 mi Variable 4.6 mph 16.1 mph 0.02 in   Overcast
3:28 AM 66.2 °F 66.2 °F 100% 29.89 in 6.0 mi Calm Calm - 0.02 in Thunderstorm Overcast
3:40 AM 66.2 °F 66.2 °F 100% 29.90 in 1.5 mi Calm Calm - 0.15 in Rain , Thunderstorm Thunderstorms and Rain
3:53 AM 66.9 °F 66.0 °F 97% 29.89 in 1.2 mi SSW 8.1 mph - 0.47 in Rain , Thunderstorm Light Thunderstorms and Rain
3:56 AM 66.2 °F 66.2 °F 100% 29.89 in 3.0 mi South 5.8 mph - 0.00 in Rain , Thunderstorm Light Thunderstorms and Rain
4:53 AM 66.9 °F 66.9 °F 100% 29.91 in 9.0 mi Calm Calm - 0.01 in Thunderstorm Thunderstorm
5:00 AM 64.4 °F 64.4 °F 100% 29.91 in 7.0 mi Calm Calm - N/A Thunderstorm Thunderstorm
5:39 AM 66.2 °F 64.4 °F 94% 29.93 in 10.0 mi North 9.2 mph - 0.01 in Rain , Thunderstorm Light Thunderstorms and Rain
5:53 AM 66.0 °F 64.0 °F 93% 29.92 in 10.0 mi North 5.8 mph - 0.01 in Rain Light Rain
6:53 AM 64.9 °F 64.0 °F 97% 29.95 in 10.0 mi North 6.9 mph - 0.00 in   Overcast
7:00 AM 64.4 °F 64.4 °F 100% 29.96 in 10.0 mi North 5.8 mph - N/A   Overcast
7:53 AM 64.9 °F 64.0 °F 97% 29.98 in 10.0 mi North 6.9 mph - 0.00 in   Overcast
8:53 AM 64.9 °F 63.0 °F 93% 29.99 in 10.0 mi North 10.4 mph - N/A   Overcast
9:00 AM 64.4 °F 62.6 °F 94% 29.99 in 10.0 mi North 9.2 mph - N/A   Overcast
9:41 AM 64.4 °F 62.6 °F 94% 29.97 in 10.0 mi North 10.4 mph - 0.00 in   Overcast
9:53 AM 64.9 °F 62.1 °F 90% 29.99 in 10.0 mi North 9.2 mph - 0.00 in   Overcast
10:53 AM 64.9 °F 61.0 °F 87% 30.01 in 10.0 mi North 5.8 mph - N/A   Overcast
11:45 AM 66.2 °F 57.2 °F 73% 29.99 in 10.0 mi North 6.9 mph - 0.00 in Rain Light Rain
11:53 AM 66.9 °F 57.0 °F 70% 29.98 in 10.0 mi North 6.9 mph - 0.00 in   Overcast
12:53 PM 64.9 °F 57.9 °F 78% 29.95 in 10.0 mi North 6.9 mph - 0.01 in Rain Light Rain
1:53 PM 66.9 °F 60.1 °F 79% 29.93 in 10.0 mi NNE 5.8 mph - 0.00 in Rain Light Rain
2:53 PM 66.0 °F 62.1 °F 87% 29.92 in 10.0 mi NNE 5.8 mph - 0.00 in   Overcast
3:53 PM 66.0 °F 63.0 °F 90% 29.91 in 10.0 mi Calm Calm - N/A   Overcast
4:29 PM 64.4 °F 62.6 °F 94% 29.90 in 6.0 mi ENE 5.8 mph - 0.00 in   Overcast
4:53 PM 64.9 °F 63.0 °F 93% 29.92 in 6.0 mi NNE 3.5 mph - 0.00 in   Overcast
5:53 PM 66.0 °F 64.0 °F 93% 29.93 in 4.0 mi North 8.1 mph - 0.01 in   Overcast
6:53 PM 64.0 °F 63.0 °F 96% 29.92 in 7.0 mi NNE 4.6 mph - N/A   Overcast
7:53 PM 64.0 °F 63.0 °F 96% 29.92 in 3.0 mi Calm Calm - N/A   Overcast
8:53 PM 64.0 °F 64.0 °F 100% 29.92 in 1.2 mi North 4.6 mph - 0.01 in Rain Light Rain
9:53 PM 64.0 °F 64.0 °F 100% 29.93 in 0.5 mi Calm Calm - 0.00 in Fog Fog
10:13 PM 64.4 °F 64.4 °F 100% 29.92 in 1.8 mi NNW 4.6 mph - N/A   Overcast
10:18 PM 64.4 °F 64.4 °F 100% 29.93 in 3.0 mi NNW 8.1 mph - N/A   Overcast
10:45 PM 62.6 °F 62.6 °F 100% 29.91 in 2.5 mi NNW 5.8 mph - N/A   Overcast
10:53 PM 63.0 °F 63.0 °F 100% 29.91 in 3.0 mi NNW 6.9 mph - N/A   Overcast
11:53 PM 61.0 °F 61.0 °F 100% 29.91 in 5.0 mi North 3.5 mph - 0.01 in   Overcast